Regional Weather Roundup
Issued by NWS

Home | Current Version | Previous Version | Graphics & Text | Print | Product List | Glossary On
Versions: 1 2 3 4 5 6 7 8 9 10 11 12 13 14 15 16 17 18 19 20 21 22 23 24 25 26 27 28 29 30 31 32 33 34 35 36 37 38 39 40 41 42 43 44 45 46 47 48 49 50
000
ASUS43 KLMK 260202
RWRKY
KENTUCKY REGIONAL WEATHER ROUNDUP
NATIONAL WEATHER SERVICE LOUISVILLE KY
1000 PM EDT TUE APR 25 2017

NOTE "FAIR" INDICATES FEW OR NO CLOUDS BELOW 12,000 FEET
WITH NO SIGNIFICANT WEATHER AND/OR OBSTRUCTIONS TO VISIBILITY.

KYZ001>023-026-027-061>063-070>075-260300-
WESTERN AND SOUTH CENTRAL KENTUCKY

CITY           SKY/WX    TMP DP  RH WIND       PRES   REMARKS
PADUCAH        CLEAR     71  53  52 SE9       29.57F
HENDERSON      PTCLDY    70  57  63 SE10      29.61S
OWENSBORO      CLOUDY    69  58  67 SE10      29.64R
HOPKINSVILLE   CLEAR     71  57  61 SE8       29.65R
BOWLING GREEN  CLEAR     65  57  75 SE6       29.69R
GLASGOW        NOT AVBL
$$

KYZ024-025-028>034-038-045-046-053-260300-
NORTH CENTRAL KENTUCKY

CITY           SKY/WX    TMP DP  RH WIND       PRES   REMARKS
LOUISVILLE/SDF PTCLDY    69  57  65 SE8       29.67R
LOUISVILLE/LOU CLEAR     69  58  67 SE6       29.68R
FORT KNOX      CLEAR     67  56  68 SE8       29.66R
$$

KYZ035>037-039>044-047>052-055>060-089>105-260300-
NORTHEAST KENTUCKY

CITY           SKY/WX    TMP DP  RH WIND       PRES   REMARKS
LEXINGTON      CLEAR     64  55  72 S6        29.72S
COVINGTON      PTCLDY    64  57  78 S7        29.70R
FRANKFORT      CLEAR     66  54  65 S5        29.69S
$$

KYZ054-064>069-076>088-106>120-260300-
SOUTHEAST KENTUCKY

CITY           SKY/WX    TMP DP  RH WIND       PRES   REMARKS
JACKSON        CLEAR     66  55  67 SE5       29.75R
LONDON         CLEAR     62  55  77 CALM      29.75R
SOMERSET       CLEAR     59  54  82 CALM      29.75R
MIDDLESBORO    CLEAR     60  59  97 CALM      29.78R
MONTICELLO     CLEAR     57  55  93 CALM      29.75S
$$





USA.gov is the U.S. government's official web portal to all federal, state and local government web resources and services.